SCP
0 0 -0 -0 -0 0 0 -0 0 0 -0 -0 -0 -0 -0 -0 -0 -0 -0 -0 -0 -1 -0 -0 -0 -0 -0 -0 0 0 -0 -0
0 0 -0 -0 -0 -0 0 0 -0 0 0 -0 0 -0 -0 -1 -0 -0 -0 -0 -0 -0 -0 -0 -0 -0 -0 -0 0 0 0 -0
0 0 0 0 0 -0 -0 0 0 -0 0 -0 0 -1 -1 -0 -0 -0 -0 -0 -0 -0 -0 -0 -0 -0 -0 -0 -0 0 0 -0
0 0 -0 0 0 0 0 0 0 0 0 0 -0 -0 -0 -0 -0 -0 -0 0 -0 -0 -0 -0 -0 -0 -0 -0 -0 -0 0 -0
0 0 0 0 0 0 0 0 0 -0 0 0 0 0 -0 -0 -0 -0 -0 -0 0 0 0 -0 -0 -0 -0 -0 -0 -0 0 -0
0 0 0 0 0 -0 0 0 0 0 0 0 -0 0 0 -0 -1 -0 -0 -0 0 0 0 0 0 0 0 0 0 0 0 0
0 -0 0 0 0 0 0 0 0 0 0 -0 0 -0 0 0 -0 -0 0 -0 0 0 0 0 0 0 0 0 0 0 0 0
-0 0 0 0 0 0 -0 0 0 0 0 0 0 0 0 0 -0 -0 -0 0 0 0 0 0 0 0 0 0 0 0 0 0
-0 0 0 0 0 -0 -0 -0 -0 0 0 0 0 -0 0 -0 0 -0 -0 0 0 0 0 0 0 0 0 0 0 0 0 0
0 0 0 0 0 0 -0 -0 -0 0 0 0 -0 -0 0 0 0 0 -0 -0 -0 -0 0 0 0 0 0 0 0 0 0 0
0 0 0 0 0 0 0 -0 -0 -0 0 -0 -0 -0 0 -0 0 0 0 0 0 -0 0 0 0 0 0 0 0 0 0 0
0 0 0 0 0 0 0 0 -0 0 0 0 0 0 0 0 0 0 0 0 0 0 0 0 0 0 0 0 0 0 0 0
0 -0 0 0 0 0 -0 0 0 0 -0 0 -0 -0 0 0 1 -0 -0 0 0 0 0 0 1 1 0 0 0 0 0 0
-0 0 0 -0 0 -0 0 0 0 0 -0 0 -0 0 0 0 0 0 0 0 -1 0 1 0 2 3 2 1 1 0 0 0
0 0 0 0 0 0 0 0 0 0 0 0 0 0 -0 0 0 0 0 0 1 0 0 0 1 2 2 1 1 1 1 1
0 0 0 0 0 -0 0 0 1 0 0 0 0 0 0 0 0 0 0 0 0 0 0 0 -0 0 2 1 1 1 1 1
-0 0 0 0 0 0 0 1 0 0 0 0 0 0 0 0 -0 0 0 0 0 0 0 0 0 -0 1 1 1 1 0 0
0 0 0 0 0 0 -0 0 0 0 -0 0 0 0 0 0 0 -0 0 0 0 0 0 0 0 1 1 1 1 1 1 1
0 0 0 0 0 -0 0 0 0 0 0 0 0 0 0 0 0 0 0 0 0 0 0 0 0 0 1 2 1 1 1 1
0 0 0 0 0 -0 0 0 0 0 0 0 0 0 0 0 0 0 0 0 0 0 0 0 0 0 0 0 0 0 0 0
Wind_Speed_500mb
7 7 11 11 13 28 32 31 42 19 35 17 29 45 29 48 46 51 50 46 43 39 36 34 32 30 27 25 23 22 21 19
2 19 20 17 19 41 11 38 46 49 14 13 19 39 39 54 42 52 54 46 42 38 36 33 31 29 27 25 23 20 19 17
8 19 7 14 29 9 3 30 57 56 17 19 24 40 51 50 41 44 55 49 43 38 37 34 31 29 26 23 21 19 17 16
10 18 11 9 15 12 15 31 58 51 30 20 41 54 51 38 27 48 54 50 45 40 37 34 31 29 27 23 21 18 16 15
16 16 7 10 12 12 9 39 26 40 14 33 49 58 48 28 32 33 45 50 46 43 39 35 32 29 26 23 21 18 16 14
12 1 4 8 7 9 38 20 43 35 8 31 57 52 47 46 40 31 30 40 47 46 43 40 36 32 28 24 21 18 16 14
13 23 11 31 20 52 53 58 56 46 44 35 51 58 49 60 43 40 32 29 48 47 44 42 38 34 31 27 23 19 16 13
6 12 14 33 36 24 32 48 34 42 28 17 41 46 53 62 54 43 36 28 41 47 46 44 41 39 35 31 26 22 19 16
13 36 33 29 35 25 41 10 51 74 74 8 35 47 53 57 61 51 39 35 27 41 43 44 44 40 38 36 34 31 26 22
12 28 25 16 21 20 26 30 47 63 68 45 51 51 54 60 62 55 44 41 34 28 31 34 38 33 30 36 35 35 33 29
13 13 11 15 19 17 10 45 49 44 29 36 40 34 50 49 59 44 33 46 39 44 38 32 35 31 31 25 39 30 30 26
6 13 10 3 8 9 32 46 45 40 39 40 43 22 23 43 15 9 54 58 55 60 49 44 40 49 45 32 23 28 21 20
20 20 4 15 12 18 35 50 47 36 56 57 58 57 50 32 50 49 47 45 57 79 57 57 52 37 42 35 28 28 31 27
24 20 15 15 16 27 50 35 29 39 52 50 56 53 47 34 48 38 27 44 62 68 57 55 51 60 43 41 39 39 43 41
12 23 12 10 9 15 33 45 51 61 54 45 47 53 54 44 40 44 48 28 33 29 42 56 51 48 60 60 57 56 49 52
18 10 9 2 12 11 23 37 55 58 51 44 45 51 52 48 42 38 36 24 28 34 20 37 48 49 48 67 68 70 62 61
7 11 11 8 8 21 1 53 50 54 55 42 40 35 37 45 53 39 34 31 6 14 9 37 39 57 59 50 59 83 79 64
8 21 14 10 13 19 19 35 50 54 50 40 32 34 35 38 46 54 45 31 24 17 5 14 41 45 43 42 45 53 60 59
8 14 17 11 17 16 27 56 61 59 46 42 40 35 35 37 44 46 47 46 35 23 18 23 47 49 43 37 43 47 50 63
20 16 5 12 11 8 31 32 43 52 48 39 34 33 28 28 36 43 46 43 40 34 26 23 23 36 42 39 43 35 33 43
Wind_Direction_500mb
157 186 186 224 231 243 267 121 116 96 99 104 113 128 145 161 154 162 153 152 149 147 144 144 142 137 135 131 128 125 125 122
149 253 254 186 221 236 160 124 120 117 85 86 115 152 165 155 160 164 153 155 152 150 146 145 143 139 137 133 129 125 123 118
265 265 253 170 200 312 339 130 112 106 116 98 112 160 159 158 162 169 154 156 156 155 151 150 147 142 137 132 129 125 120 119
277 281 236 79 60 7 352 135 112 107 106 94 130 149 152 159 166 173 159 160 161 159 157 154 153 149 146 140 132 127 123 118
267 284 9 109 95 1 49 65 99 127 102 127 140 148 149 154 163 146 163 167 167 165 164 162 161 159 155 152 147 140 133 122
310 202 158 95 89 34 54 34 101 81 89 140 149 155 152 160 166 169 175 182 175 174 172 171 170 169 167 167 165 159 152 141
293 28 332 31 56 66 83 77 82 87 113 137 154 157 159 163 172 181 187 198 187 182 180 179 178 179 180 181 180 178 171 163
295 49 17 7 33 31 89 91 78 85 100 94 157 166 166 168 173 194 194 192 202 193 188 187 188 190 189 192 193 192 189 182
49 45 27 349 20 0 109 53 131 128 110 347 184 186 179 183 182 198 209 213 206 203 199 198 195 199 202 202 203 204 203 198
347 51 13 346 16 335 84 152 137 144 161 173 197 191 199 193 188 187 205 216 213 218 200 207 212 197 213 222 219 216 216 205
28 9 330 331 348 316 77 140 145 155 164 170 186 237 324 229 186 166 171 207 223 221 211 212 220 215 223 238 231 221 230 219
10 288 299 182 291 286 279 164 157 165 168 120 98 193 323 25 182 231 195 198 215 223 218 203 220 225 228 237 241 215 228 226
282 249 159 81 323 268 262 155 159 177 101 86 86 90 85 99 70 209 219 238 222 211 215 200 207 219 222 228 253 232 238 249
266 203 161 118 274 261 238 123 103 73 73 52 47 54 56 64 56 75 191 231 204 214 213 217 209 212 215 210 220 231 231 239
311 135 146 148 275 5 122 116 91 78 66 49 34 30 29 31 21 11 40 159 186 192 195 202 218 224 233 225 224 221 219 227
148 178 112 33 305 322 149 114 96 86 74 56 37 23 13 16 20 0 4 19 187 200 224 317 251 235 240 242 236 230 228 228
83 141 117 130 275 289 175 105 94 84 74 60 40 26 19 13 18 12 358 15 315 314 287 242 259 253 242 251 256 246 244 248
7 20 56 16 290 284 78 99 94 90 77 64 53 41 28 18 18 11 16 13 9 14 239 222 226 248 252 263 276 262 257 258
17 4 347 352 292 258 100 103 95 86 82 67 59 51 34 22 19 14 18 16 13 351 346 216 224 235 242 255 260 259 259 257
358 12 287 59 287 332 133 113 98 94 82 78 68 59 45 38 25 19 20 19 14 11 343 336 298 260 258 259 266 292 291 295
Wind_Speed_850mb
7 7 11 11 13 28 32 31 42 19 35 17 29 45 29 48 46 51 50 46 43 39 36 34 32 30 27 25 23 22 21 19
2 19 20 17 19 41 11 38 46 49 14 13 19 39 39 54 42 52 54 46 42 38 36 33 31 29 27 25 23 20 19 17
8 19 7 14 29 9 3 30 57 56 17 19 24 40 51 50 41 44 55 49 43 38 37 34 31 29 26 23 21 19 17 16
10 18 11 9 15 12 15 31 58 51 30 20 41 54 51 38 27 48 54 50 45 40 37 34 31 29 27 23 21 18 16 15
16 16 7 10 12 12 9 39 26 40 14 33 49 58 48 28 32 33 45 50 46 43 39 35 32 29 26 23 21 18 16 14
12 1 4 8 7 9 38 20 43 35 8 31 57 52 47 46 40 31 30 40 47 46 43 40 36 32 28 24 21 18 16 14
13 23 11 31 20 52 53 58 56 46 44 35 51 58 49 60 43 40 32 29 48 47 44 42 38 34 31 27 23 19 16 13
6 12 14 33 36 24 32 48 34 42 28 17 41 46 53 62 54 43 36 28 41 47 46 44 41 39 35 31 26 22 19 16
13 36 33 29 35 25 41 10 51 74 74 8 35 47 53 57 61 51 39 35 27 41 43 44 44 40 38 36 34 31 26 22
12 28 25 16 21 20 26 30 47 63 68 45 51 51 54 60 62 55 44 41 34 28 31 34 38 33 30 36 35 35 33 29
13 13 11 15 19 17 10 45 49 44 29 36 40 34 50 49 59 44 33 46 39 44 38 32 35 31 31 25 39 30 30 26
6 13 10 3 8 9 32 46 45 40 39 40 43 22 23 43 15 9 54 58 55 60 49 44 40 49 45 32 23 28 21 20
20 20 4 15 12 18 35 50 47 36 56 57 58 57 50 32 50 49 47 45 57 79 57 57 52 37 42 35 28 28 31 27
24 20 15 15 16 27 50 35 29 39 52 50 56 53 47 34 48 38 27 44 62 68 57 55 51 60 43 41 39 39 43 41
12 23 12 10 9 15 33 45 51 61 54 45 47 53 54 44 40 44 48 28 33 29 42 56 51 48 60 60 57 56 49 52
18 10 9 2 12 11 23 37 55 58 51 44 45 51 52 48 42 38 36 24 28 34 20 37 48 49 48 67 68 70 62 61
7 11 11 8 8 21 1 53 50 54 55 42 40 35 37 45 53 39 34 31 6 14 9 37 39 57 59 50 59 83 79 64
8 21 14 10 13 19 19 35 50 54 50 40 32 34 35 38 46 54 45 31 24 17 5 14 41 45 43 42 45 53 60 59
8 14 17 11 17 16 27 56 61 59 46 42 40 35 35 37 44 46 47 46 35 23 18 23 47 49 43 37 43 47 50 63
20 16 5 12 11 8 31 32 43 52 48 39 34 33 28 28 36 43 46 43 40 34 26 23 23 36 42 39 43 35 33 43
Wind_Direction_850mb
157 186 186 224 231 243 267 121 116 96 99 104 113 128 145 161 154 162 153 152 149 147 144 144 142 137 135 131 128 125 125 122
149 253 254 186 221 236 160 124 120 117 85 86 115 152 165 155 160 164 153 155 152 150 146 145 143 139 137 133 129 125 123 118
265 265 253 170 200 312 339 130 112 106 116 98 112 160 159 158 162 169 154 156 156 155 151 150 147 142 137 132 129 125 120 119
277 281 236 79 60 7 352 135 112 107 106 94 130 149 152 159 166 173 159 160 161 159 157 154 153 149 146 140 132 127 123 118
267 284 9 109 95 1 49 65 99 127 102 127 140 148 149 154 163 146 163 167 167 165 164 162 161 159 155 152 147 140 133 122
310 202 158 95 89 34 54 34 101 81 89 140 149 155 152 160 166 169 175 182 175 174 172 171 170 169 167 167 165 159 152 141
293 28 332 31 56 66 83 77 82 87 113 137 154 157 159 163 172 181 187 198 187 182 180 179 178 179 180 181 180 178 171 163
295 49 17 7 33 31 89 91 78 85 100 94 157 166 166 168 173 194 194 192 202 193 188 187 188 190 189 192 193 192 189 182
49 45 27 349 20 0 109 53 131 128 110 347 184 186 179 183 182 198 209 213 206 203 199 198 195 199 202 202 203 204 203 198
347 51 13 346 16 335 84 152 137 144 161 173 197 191 199 193 188 187 205 216 213 218 200 207 212 197 213 222 219 216 216 205
28 9 330 331 348 316 77 140 145 155 164 170 186 237 324 229 186 166 171 207 223 221 211 212 220 215 223 238 231 221 230 219
10 288 299 182 291 286 279 164 157 165 168 120 98 193 323 25 182 231 195 198 215 223 218 203 220 225 228 237 241 215 228 226
282 249 159 81 323 268 262 155 159 177 101 86 86 90 85 99 70 209 219 238 222 211 215 200 207 219 222 228 253 232 238 249
266 203 161 118 274 261 238 123 103 73 73 52 47 54 56 64 56 75 191 231 204 214 213 217 209 212 215 210 220 231 231 239
311 135 146 148 275 5 122 116 91 78 66 49 34 30 29 31 21 11 40 159 186 192 195 202 218 224 233 225 224 221 219 227
148 178 112 33 305 322 149 114 96 86 74 56 37 23 13 16 20 0 4 19 187 200 224 317 251 235 240 242 236 230 228 228
83 141 117 130 275 289 175 105 94 84 74 60 40 26 19 13 18 12 358 15 315 314 287 242 259 253 242 251 256 246 244 248
7 20 56 16 290 284 78 99 94 90 77 64 53 41 28 18 18 11 16 13 9 14 239 222 226 248 252 263 276 262 257 258
17 4 347 352 292 258 100 103 95 86 82 67 59 51 34 22 19 14 18 16 13 351 346 216 224 235 242 255 260 259 259 257
358 12 287 59 287 332 133 113 98 94 82 78 68 59 45 38 25 19 20 19 14 11 343 336 298 260 258 259 266 292 291 295